When you browse on this site, cookies collect data to enhance your experience and personalize the content and advertising you see.
Visit our Privacy Policy to learn more. By continuing to use the site, you agree to this use of cookies and data.
  • In United Kingdom
  • List of Countries
  • For 7 days
  • Water Temperature
  • Satellite Maps
  • Weather Map
  • Weather Widgets
  • user-avatar
    Login

    Hourly Weather Sololá

    Today, 17 February, Sunday

    Time Temperature Precipitation Wind Pressure Humidity
    00:00 +14°C° 0 mm 1 mps 593 mmHg 95%
    01:00 +14°C° 0 mm 1 mps 593 mmHg 94%
    02:00 +13°C° 0 mm 1 mps 592 mmHg 93%
    03:00 +13°C° 0 mm 1 mps 592 mmHg 93%
    04:00 +13°C° 0 mm 1 mps 592 mmHg 92%
    05:00 +12°C° 0 mm 1 mps 592 mmHg 91%
    06:00 +12°C° 0 mm 1 mps 592 mmHg 90%
    07:00 +15°C° 0 mm 1 mps 594 mmHg 81%
    08:00 +19°C° 0 mm 1 mps 595 mmHg 72%
    09:00 +21°C° 0 mm 1 mps 597 mmHg 63%
    10:00 +23°C° 0 mm 1 mps 597 mmHg 56%
    11:00 +24°C° 0 mm 2 mps 598 mmHg 49%
    12:00 +26°C° 0 mm 2 mps 598 mmHg 43%
    13:00 +25°C° 0 mm 2 mps 597 mmHg 47%
    14:00 +25°C° 0 mm 2 mps 596 mmHg 52%
    15:00 +24°C° 0 mm 2 mps 595 mmHg 56%
    16:00 +21°C° 0.1 mm 2 mps 595 mmHg 66%
    17:00 +19°C° 0.1 mm 2 mps 594 mmHg 76%
    18:00 +19°C° 0.1 mm 1 mps 594 mmHg 87%
    19:00 +18°C° 0 mm 1 mps 594 mmHg 89%
    20:00 +16°C° 0 mm 1 mps 594 mmHg 91%
    21:00 +15°C° 0 mm 0 mps 594 mmHg 93%
    22:00 +14°C° 0 mm 0 mps 594 mmHg 92%
    23:00 +15°C° 0 mm 1 mps 594 mmHg 91%

    Tomorrow, 18 February, Monday

    Time Temperature Precipitation Wind Pressure Humidity
    00:00 +14°C° 0 mm 1 mps 594 mmHg 91%
    01:00 +14°C° 0 mm 1 mps 593 mmHg 90%
    02:00 +13°C° 0 mm 1 mps 593 mmHg 89%
    03:00 +13°C° 0 mm 1 mps 592 mmHg 89%
    04:00 +12°C° 0 mm 1 mps 593 mmHg 87%
    05:00 +12°C° 0 mm 1 mps 593 mmHg 86%
    06:00 +12°C° 0 mm 1 mps 593 mmHg 85%
    07:00 +15°C° 0 mm 1 mps 594 mmHg 75%
    08:00 +19°C° 0 mm 1 mps 596 mmHg 65%
    09:00 +22°C° 0 mm 1 mps 598 mmHg 54%
    10:00 +23°C° 0 mm 1 mps 598 mmHg 48%
    11:00 +25°C° 0 mm 2 mps 599 mmHg 41%
    12:00 +26°C° 0 mm 2 mps 599 mmHg 34%
    13:00 +26°C° 0 mm 2 mps 598 mmHg 36%
    14:00 +26°C° 0 mm 2 mps 598 mmHg 37%
    15:00 +25°C° 0 mm 3 mps 597 mmHg 39%
    16:00 +23°C° 0 mm 2 mps 596 mmHg 50%
    17:00 +20°C° 0 mm 2 mps 595 mmHg 61%
    18:00 +19°C° 0 mm 1 mps 594 mmHg 72%
    19:00 +16°C° 0 mm 1 mps 594 mmHg 75%
    20:00 +15°C° 0 mm 1 mps 594 mmHg 78%
    21:00 +14°C° 0 mm 1 mps 594 mmHg 81%
    22:00 +14°C° 0 mm 1 mps 594 mmHg 78%
    23:00 +13°C° 0 mm 1 mps 594 mmHg 75%

    Day after tomorrow, 19 February, Tuesday

    Time Temperature Precipitation Wind Pressure Humidity
    00:00 +13°C° 0 mm 1 mps 594 mmHg 73%
    01:00 +13°C° 0 mm 1 mps 593 mmHg 71%
    02:00 +13°C° 0 mm 1 mps 593 mmHg 69%
    03:00 +12°C° 0 mm 1 mps 592 mmHg 68%
    04:00 +12°C° 0 mm 1 mps 592 mmHg 66%
    05:00 +12°C° 0 mm 1 mps 593 mmHg 64%
    06:00 +12°C° 0 mm 1 mps 593 mmHg 63%
    07:00 +15°C° 0 mm 1 mps 594 mmHg 56%
    08:00 +19°C° 0 mm 1 mps 596 mmHg 48%
    09:00 +22°C° 0 mm 1 mps 598 mmHg 41%
    10:00 +23°C° 0 mm 1 mps 598 mmHg 39%
    11:00 +25°C° 0 mm 2 mps 598 mmHg 36%
    12:00 +26°C° 0 mm 2 mps 598 mmHg 34%
    13:00 +25°C° 0 mm 2 mps 598 mmHg 37%
    14:00 +25°C° 0 mm 2 mps 597 mmHg 39%
    15:00 +25°C° 0 mm 2 mps 596 mmHg 42%
    16:00 +21°C° 0.3 mm 2 mps 595 mmHg 53%
    17:00 +20°C° 0.3 mm 1 mps 594 mmHg 64%
    18:00 +18°C° 0.3 mm 1 mps 593 mmHg 74%
    19:00 +16°C° 0 mm 1 mps 593 mmHg 77%
    20:00 +15°C° 0 mm 1 mps 593 mmHg 80%
    21:00 +14°C° 0 mm 1 mps 593 mmHg 83%
    22:00 +14°C° 0 mm 1 mps 593 mmHg 80%
    23:00 +13°C° 0 mm 1 mps 593 mmHg 78%

    20 February, Wednesday

    Time Temperature Precipitation Wind Pressure Humidity
    00:00 +13°C° 0 mm 1 mps 593 mmHg 76%
    01:00 +13°C° 0 mm 1 mps 592 mmHg 75%
    02:00 +12°C° 0 mm 1 mps 592 mmHg 75%
    03:00 +12°C° 0 mm 1 mps 591 mmHg 75%
    04:00 +12°C° 0 mm 1 mps 591 mmHg 76%
    05:00 +12°C° 0 mm 1 mps 591 mmHg 77%
    06:00 +12°C° 0 mm 1 mps 591 mmHg 78%
    07:00 +15°C° 0 mm 1 mps 593 mmHg 71%
    08:00 +18°C° 0 mm 1 mps 595 mmHg 65%
    09:00 +21°C° 0 mm 1 mps 596 mmHg 58%
    10:00 +22°C° 0 mm 1 mps 596 mmHg 56%
    11:00 +22°C° 0 mm 1 mps 596 mmHg 55%
    12:00 +23°C° 0 mm 1 mps 596 mmHg 54%
    13:00 +23°C° 0.5 mm 2 mps 595 mmHg 56%
    14:00 +23°C° 0.5 mm 2 mps 594 mmHg 59%
    15:00 +21°C° 0.5 mm 2 mps 593 mmHg 62%
    16:00 +21°C° 0.6 mm 1 mps 593 mmHg 69%
    17:00 +19°C° 0.6 mm 1 mps 593 mmHg 76%
    18:00 +16°C° 0.6 mm 1 mps 592 mmHg 84%
    19:00 +15°C° 0 mm 1 mps 592 mmHg 85%
    20:00 +15°C° 0 mm 1 mps 592 mmHg 86%
    21:00 +14°C° 0 mm 1 mps 592 mmHg 88%
    22:00 +13°C° 0 mm 1 mps 592 mmHg 86%
    23:00 +13°C° 0 mm 1 mps 592 mmHg 85%

    21 February, Thursday

    Time Temperature Precipitation Wind Pressure Humidity
    00:00 +12°C° 0 mm 1 mps 592 mmHg 84%
    01:00 +12°C° 0 mm 1 mps 591 mmHg 83%
    02:00 +12°C° 0 mm 1 mps 591 mmHg 82%
    03:00 +12°C° 0 mm 1 mps 591 mmHg 81%
    04:00 +12°C° 0 mm 1 mps 591 mmHg 81%
    05:00 +12°C° 0 mm 1 mps 592 mmHg 81%
    06:00 +13°C° 0 mm 1 mps 592 mmHg 80%
    07:00 +14°C° 0.1 mm 1 mps 593 mmHg 79%
    08:00 +15°C° 0.1 mm 1 mps 594 mmHg 78%
    09:00 +18°C° 0.1 mm 1 mps 595 mmHg 77%
    10:00 +18°C° 0.2 mm 1 mps 595 mmHg 77%
    11:00 +19°C° 0.2 mm 1 mps 595 mmHg 76%
    12:00 +19°C° 0.2 mm 1 mps 595 mmHg 75%
    13:00 +20°C° 0.3 mm 1 mps 594 mmHg 75%
    14:00 +20°C° 0.3 mm 1 mps 594 mmHg 74%
    15:00 +19°C° 0.3 mm 2 mps 593 mmHg 74%
    16:00 +19°C° 0.4 mm 1 mps 593 mmHg 78%
    17:00 +18°C° 0.4 mm 1 mps 593 mmHg 83%
    18:00 +15°C° 0.4 mm 0 mps 592 mmHg 88%
    19:00 +15°C° 0.1 mm 1 mps 593 mmHg 89%
    20:00 +15°C° 0.1 mm 1 mps 593 mmHg 90%
    21:00 +14°C° 0.1 mm 1 mps 593 mmHg 91%
    22:00 +14°C° 0 mm 1 mps 593 mmHg 90%
    23:00 +13°C° 0 mm 1 mps 593 mmHg 90%

    22 February, Friday

    Time Temperature Precipitation Wind Pressure Humidity
    00:00 +13°C° 0 mm 1 mps 593 mmHg 89%
    01:00 +13°C° 0 mm 1 mps 592 mmHg 88%
    02:00 +13°C° 0 mm 1 mps 592 mmHg 87%
    03:00 +12°C° 0 mm 0 mps 592 mmHg 87%
    04:00 +12°C° 0 mm 0 mps 593 mmHg 87%
    05:00 +12°C° 0 mm 0 mps 593 mmHg 87%
    06:00 +12°C° 0 mm 0 mps 593 mmHg 87%
    07:00 +14°C° 0.1 mm 0 mps 594 mmHg 83%
    08:00 +15°C° 0.1 mm 0 mps 595 mmHg 79%
    09:00 +17°C° 0.1 mm 0 mps 596 mmHg 75%
    10:00 +20°C° 0.2 mm 1 mps 596 mmHg 71%
    11:00 +21°C° 0.2 mm 1 mps 596 mmHg 66%
    12:00 +22°C° 0.2 mm 1 mps 596 mmHg 62%
    13:00 +22°C° 0.2 mm 1 mps 596 mmHg 63%
    14:00 +22°C° 0.2 mm 1 mps 595 mmHg 63%
    15:00 +22°C° 0.2 mm 1 mps 595 mmHg 64%
    16:00 +20°C° 0.2 mm 1 mps 594 mmHg 70%
    17:00 +19°C° 0.2 mm 1 mps 594 mmHg 76%
    18:00 +18°C° 0.2 mm 1 mps 594 mmHg 82%
    19:00 +16°C° 0 mm 1 mps 594 mmHg 84%
    20:00 +15°C° 0 mm 1 mps 594 mmHg 86%
    21:00 +14°C° 0 mm 1 mps 594 mmHg 88%
    22:00 +13°C° 0 mm 1 mps 594 mmHg 87%
    23:00 +13°C° 0 mm 1 mps 593 mmHg 86%
    Show more